Find Starlink 37225

NORAD ID: 68715 Int'l Des: 2026-081 Owner: SPXS Country: US Constellation: starlink operational
LEOCIRCULAR

Live Position

Loading 3D Globe...

About Starlink 37225

Description loading...

Upcoming Passes

Passes for default location (London). Set your location on the main map for personalized predictions.

Altitude History

Loading altitude history...

Two-Line Element Set

1 68715C 26081R 26105.38243056 .00618300 00000+0 79626-3 0 1058
2 68715 53.1628 238.0038 0007263 303.3430 7.9436 16.06094539 15
Epoch: Apr 15, 2026 • Age: 24 hours

Current Status

Altitude 270.2 km
Velocity 7.75 km/s
Sub-Earth Point -53.06°S, 65.95°W
Launch Date Apr 14, 2026
Age 1 days
Type internet

Technical Details

Classification Payload
Mass 575.00 kg
Dry Mass 530.00 kg
Total Mass 575.00 kg
Length 0.30 m
Diameter 4.10 m
Span 29.00 m
Shape Box + pan
Manufacturer SPXS
Bus Type Starlink V2MO
Phase Status In Orbit
Owner/State SPXS/US

Most Searched